This is the latest recevied weather packets stored in our database for station/object DM1HF-13. If no packets are shown the sender has not sent any weather packets the latest 1 day(s).
| Time | Temp. | Humidity | Pressure | Rain* | Wind** | Luminosity | Snow |
|---|---|---|---|---|---|---|---|
| 1778077517 | 18.89° C | 70% | 1006.7 hPa | 0 mm | - | 81 W/m² | - |
| 1778076317 | 18.89° C | 72% | 1006.9 hPa | 0 mm | - | 379 W/m² | - |
| 1778076017 | 18.33° C | 72% | 1007 hPa | 0 mm | - | 517 W/m² | - |
| 1778075416 | 18.33° C | 74% | 1006.9 hPa | 0 mm | - | 120 W/m² | - |
| 1778074817 | 17.78° C | 76% | 1006.9 hPa | 0 mm | - | 341 W/m² | - |
| 1778073917 | 17.22° C | 83% | 1007 hPa | 0 mm | - | 266 W/m² | - |
| 1778073617 | 16.67° C | 84% | 1007 hPa | 0 mm | - | 220 W/m² | - |
| 1778073017 | 16.11° C | 87% | 1007 hPa | 0 mm | - | 340 W/m² | - |
| 1778072717 | 16.11° C | 86% | 1007 hPa | 0 mm | - | 372 W/m² | - |
| 1778072417 | 16.11° C | 87% | 1006.9 hPa | 0 mm | - | 91 W/m² | - |
| 1778072117 | 16.11° C | 85% | 1007 hPa | 0 mm | - | 95 W/m² | - |
| 1778071517 | 17.22° C | 75% | 1007 hPa | 4.32 mm | - | 27 W/m² | - |
| 1778071217 | 17.78° C | 72% | 1006.9 hPa | 0 mm | - | 42 W/m² | - |
| 1778070917 | 18.33° C | 70% | 1007 hPa | 0 mm | - | 60 W/m² | - |
| 1778070617 | 18.33° C | 69% | 1007 hPa | 0 mm | - | 84 W/m² | - |
| 1778070317 | 18.89° C | 67% | 1007 hPa | 0 mm | - | 105 W/m² | - |
| 1778069717 | 19.44° C | 60% | 1007 hPa | 0 mm | - | 900 W/m² | - |
| 1778069417 | 20° C | 62% | 1007.1 hPa | 0 mm | - | 317 W/m² | - |
| 1778069117 | 18.89° C | 64% | 1006.9 hPa | 0 mm | - | 238 W/m² | - |
| 1778068817 | 18.89° C | 65% | 1007 hPa | 0 mm | - | 568 W/m² | - |
| 1778068517 | 18.89° C | 64% | 1007.1 hPa | 0 mm | - | 704 W/m² | - |
| 1778068216 | 18.33° C | 64% | 1007.1 hPa | 0 mm | - | 232 W/m² | - |
| 1778067917 | 18.89° C | 64% | 1007 hPa | 0 mm | - | 142 W/m² | - |
| 1778067617 | 18.89° C | 65% | 1007 hPa | 0 mm | - | 730 W/m² | - |
| 1778067317 | 18.89° C | 66% | 1007 hPa | 0 mm | - | 527 W/m² | - |
* Rain latest hour (hover to see other rain measurements)
** Current wind speed in m/s (hover to see current wind gust speed)